Location: Newark
(45.8667°N, 9.7333°E)
Time: 00:32:59
(UTC+00:00)

Vanguard 2 Rocket - Pass Details

Date: 01 February 2020
Orbit: 553 x 3327 km, 32.9° (Epoch: 24 February)

Event Time Altitude Azimuth Distance (km) Brightness Sun altitude
Rises 02:55:16 0° 227° (SW) 2,803 - -39.7°
Reaches altitude 10° 02:58:42 10° 196° (SSW) 1,820 - -39.1°
Maximum altitude 03:00:26 12° 169° (S) 1,674 - -38.9°
Drops below altitude 10° 03:02:11 10° 143° (SE) 1,874 - -38.6°
Exits shadow 03:04:06 - 124° (ESE) 2,382 9.5 -38.2°
Sets 03:05:52 0° 113° (ESE) 2,986 10.2 -37.9°
